CST,Max TemperatureF,Mean TemperatureF,Min TemperatureF,Max Dew PointF,MeanDew PointF,Min DewpointF,Max Humidity, Mean Humidity, Min Humidity, Max Sea Level PressureIn, Mean Sea Level PressureIn, Min Sea Level PressureIn, Max VisibilityMiles, Mean VisibilityMiles, Min VisibilityMiles, Max Wind SpeedMPH, Mean Wind SpeedMPH, Max Gust SpeedMPH,PrecipitationIn, CloudCover, Events, WindDirDegrees
2013-2-1,30,11,-9,19,9,-12,81,72,63,30.32,30.08,29.90,10,10,4,15,7,18,0.00,7,,150
2013-2-2,39,27,15,31,21,11,92,78,64,30.20,30.05,29.91,10,8,2,43,12,53,0.01,6,Snow,329
2013-2-3,32,23,13,25,16,8,92,82,72,30.20,29.95,29.82,10,10,10,18,7,24,0.00,5,,96
2013-2-4,37,25,12,28,18,7,88,82,75,30.04,29.85,29.70,10,8,1,22,8,25,0.02,7,Snow,166
2013-2-5,39,30,20,28,24,18,88,74,59,29.99,29.91,29.71,10,10,10,20,10,23,0.00,2,,323
2013-2-6,46,34,21,32,25,19,96,77,58,30.07,29.87,29.78,10,10,7,15,8,20,0.00,2,,46
2013-2-7,29,26,22,25,22,19,96,87,78,30.22,30.13,30.02,10,6,2,18,7,22,T,8,Snow,99
2013-2-8,35,28,21,29,23,19,100,88,75,30.21,30.01,29.83,10,7,2,22,14,25,0.00,6,,127
2013-2-9,28,26,24,25,24,23,100,92,84,29.91,29.84,29.69,10,5,1,16,8,21,0.00,8,,30
2013-2-10,29,26,22,25,21,16,96,89,81,29.94,29.68,29.59,10,3,0,33,20,43,0.20,8,Fog-Snow,346
2013-2-11,28,22,15,18,16,11,84,74,63,30.10,30.02,29.96,10,10,7,28,13,35,0.00,6,,310
2013-2-12,42,28,13,27,20,9,85,69,53,29.94,29.91,29.84,10,10,10,16,6,20,0.00,2,,312
2013-2-13,44,33,21,32,27,19,92,77,62,29.83,29.72,29.61,10,10,3,29,10,35,T,5,Snow,338
2013-2-14,36,28,20,31,20,14,85,73,61,30.32,30.08,29.79,10,8,1,35,15,47,0.01,8,Snow,332
2013-2-15,25,20,15,20,15,11,88,75,62,30.40,30.30,30.20,10,8,0,18,8,24,0.03,6,Fog-Snow,356
2013-2-16,40,29,18,30,23,15,92,78,64,30.16,29.97,29.86,10,8,1,14,7,17,0.03,6,Snow,147
2013-2-17,48,37,26,36,29,23,92,77,61,29.83,29.61,29.47,10,10,10,24,11,31,T,2,Rain,180
2013-2-18,36,20,4,28,10,-3,85,74,62,30.28,29.95,29.57,10,9,4,37,22,46,T,6,Snow,335
2013-2-19,11,3,-5,-3,-7,-11,79,69,58,30.48,30.42,30.31,10,10,10,17,9,25,0.00,0,,30
2013-2-20,16,5,-6,10,-2,-12,78,68,58,30.43,30.27,30.09,10,9,2,25,15,30,0.01,6,Snow,131
2013-2-21,19,16,13,12,10,8,88,81,73,30.22,30.14,30.08,10,6,2,18,10,22,0.07,8,Snow,123
2013-2-22,30,21,12,19,12,8,96,81,65,30.12,30.01,29.89,10,9,2,10,4,13,T,5,Snow,127
2013-2-23,37,24,10,25,16,7,92,76,59,29.88,29.81,29.74,10,10,10,14,9,16,0.00,0,,136
2013-2-24,41,30,19,30,22,16,91,78,64,30.11,29.99,29.88,10,9,5,22,7,29,0.01,6,,34
2013-2-25,46,30,14,26,19,11,92,63,33,30.12,30.03,29.94,10,10,10,18,7,21,0.00,0,,150
2013-2-26,40,28,16,25,20,15,92,66,40,30.10,29.98,29.92,10,10,10,12,5,13,0.00,0,,108
2013-2-27,32,30,27,27,25,21,85,77,69,30.28,30.18,30.05,10,8,5,20,12,24,0.00,8,,346
2013-2-28,35,29,22,22,20,18,92,77,61,30.32,30.26,30.19,10,9,1,15,7,20,T,7,Snow,20